This is the latest recevied weather packets stored in our database for station/object IZ5MMH-4. If no packets are shown the sender has not sent any weather packets the latest 10 day(s).
| Time | Temp. | Humidity | Pressure | Rain* | Wind** | Luminosity | Snow |
|---|---|---|---|---|---|---|---|
| 1787905463 | 31.67° C | 65% | 1016.2 hPa | - | - | - | - |
| 1787904863 | 31.67° C | 66% | 1016.2 hPa | - | - | - | - |
| 1787904263 | 31.11° C | 66% | 1016.4 hPa | - | - | - | - |
| 1787903663 | 31.11° C | 65% | 1016.6 hPa | - | - | - | - |
| 1787903063 | 31.11° C | 64% | 1016.7 hPa | - | - | - | - |
| 1787902463 | 31.11° C | 62% | 1016.8 hPa | - | - | - | - |
| 1787901863 | 30.56° C | 61% | 1016.9 hPa | - | - | - | - |
| 1787901263 | 30.56° C | 61% | 1016.7 hPa | - | - | - | - |
| 1787900663 | 30.56° C | 60% | 1016.6 hPa | - | - | - | - |
| 1787900063 | 30.56° C | 62% | 1016.1 hPa | - | - | - | - |
| 1787899463 | 30° C | 66% | 1016.4 hPa | - | - | - | - |
| 1787898863 | 30° C | 74% | 1016.7 hPa | - | - | - | - |
| 1787898263 | 30° C | 78% | 1016.8 hPa | - | - | - | - |
| 1787897663 | 30° C | 81% | 1017.5 hPa | - | - | - | - |
| 1787897063 | 29.44° C | 80% | 1017.9 hPa | - | - | - | - |
| 1787896463 | 29.44° C | 79% | 1017.9 hPa | - | - | - | - |
| 1787895864 | 30° C | 73% | 1017.9 hPa | - | - | - | - |
| 1787895263 | 30° C | 70% | 1017.5 hPa | - | - | - | - |
| 1787894664 | 30° C | 71% | 1017.3 hPa | - | - | - | - |
| 1787894063 | 30° C | 70% | 1017.1 hPa | - | - | - | - |
| 1787893463 | 30° C | 69% | 1016.7 hPa | - | - | - | - |
| 1787892863 | 30° C | 69% | 1017.1 hPa | - | - | - | - |
| 1787892263 | 30.56° C | 67% | 1017.1 hPa | - | - | - | - |
| 1787891664 | 30.56° C | 66% | 1016.8 hPa | - | - | - | - |
| 1787891063 | 30.56° C | 64% | 1016.7 hPa | - | - | - | - |
* Rain since midnight (hover to see other rain measurements)
** Current wind speed in m/s (hover to see current wind gust speed)